#datetime,building,power
2022-01-21T00:00:00,plm,12.34
2022-01-21T00:01:00,plm,12.26
2022-01-21T00:02:00,plm,13.20
2022-01-21T00:03:00,plm,13.25
2022-01-21T00:04:00,plm,13.37
2022-01-21T00:05:00,plm,12.38
2022-01-21T00:06:00,plm,12.28
2022-01-21T00:07:00,plm,12.49
2022-01-21T00:08:00,plm,12.54
2022-01-21T00:09:00,plm,12.90
2022-01-21T00:10:00,plm,18.06
2022-01-21T00:11:00,plm,18.21
2022-01-21T00:12:00,plm,18.34
2022-01-21T00:13:00,plm,19.62
2022-01-21T00:14:00,plm,17.32
2022-01-21T00:15:00,plm,17.24
2022-01-21T00:16:00,plm,17.33
2022-01-21T00:17:00,plm,17.35
2022-01-21T00:18:00,plm,17.19
2022-01-21T00:19:00,plm,17.31
2022-01-21T00:20:00,plm,18.16
2022-01-21T00:21:00,plm,18.09
2022-01-21T00:22:00,plm,18.09
2022-01-21T00:23:00,plm,18.18
2022-01-21T00:24:00,plm,17.26
2022-01-21T00:25:00,plm,17.25
2022-01-21T00:26:00,plm,17.30
2022-01-21T00:27:00,plm,17.39
2022-01-21T00:28:00,plm,26.89
2022-01-21T00:29:00,plm,27.45
2022-01-21T00:30:00,plm,27.34
2022-01-21T00:31:00,plm,18.27
2022-01-21T00:32:00,plm,18.26
2022-01-21T00:33:00,plm,17.34
2022-01-21T00:34:00,plm,16.93
2022-01-21T00:35:00,plm,16.92
2022-01-21T00:36:00,plm,16.91
2022-01-21T00:37:00,plm,16.95
2022-01-21T00:38:00,plm,16.96
2022-01-21T00:39:00,plm,17.05
2022-01-21T00:40:00,plm,17.20
2022-01-21T00:41:00,plm,18.05
2022-01-21T00:42:00,plm,18.02
2022-01-21T00:43:00,plm,18.13
2022-01-21T00:44:00,plm,18.11
2022-01-21T00:45:00,plm,17.32
2022-01-21T00:46:00,plm,28.75
2022-01-21T00:47:00,plm,13.10
2022-01-21T00:48:00,plm,13.04
2022-01-21T00:49:00,plm,13.13
2022-01-21T00:50:00,plm,17.65
2022-01-21T00:51:00,plm,18.14
2022-01-21T00:52:00,plm,18.14
2022-01-21T00:53:00,plm,18.14
2022-01-21T00:54:00,plm,13.23
2022-01-21T00:55:00,plm,13.26
2022-01-21T00:56:00,plm,13.22
2022-01-21T00:57:00,plm,17.37
2022-01-21T00:58:00,plm,17.32
2022-01-21T00:59:00,plm,18.32
2022-01-21T01:00:00,plm,18.28
2022-01-21T01:01:00,plm,14.13
2022-01-21T01:02:00,plm,14.15
2022-01-21T01:03:00,plm,13.19
2022-01-21T01:04:00,plm,13.16
2022-01-21T01:05:00,plm,17.10
2022-01-21T01:06:00,plm,17.02
2022-01-21T01:07:00,plm,12.85
2022-01-21T01:08:00,plm,12.84
2022-01-21T01:09:00,plm,13.69
2022-01-21T01:10:00,plm,13.50
2022-01-21T01:11:00,plm,13.52
2022-01-21T01:12:00,plm,12.60
2022-01-21T01:13:00,plm,12.67
2022-01-21T01:14:00,plm,12.54
2022-01-21T01:15:00,plm,12.60
2022-01-21T01:16:00,plm,12.80
2022-01-21T01:17:00,plm,12.73
2022-01-21T01:18:00,plm,13.45
2022-01-21T01:19:00,plm,13.48
2022-01-21T01:20:00,plm,13.44
2022-01-21T01:21:00,plm,12.64
2022-01-21T01:22:00,plm,12.57
2022-01-21T01:23:00,plm,12.43
2022-01-21T01:24:00,plm,12.38
2022-01-21T01:25:00,plm,12.38
2022-01-21T01:26:00,plm,12.33
2022-01-21T01:27:00,plm,13.14
2022-01-21T01:28:00,plm,13.18
2022-01-21T01:29:00,plm,13.29
2022-01-21T01:30:00,plm,12.28
2022-01-21T01:31:00,plm,12.20
2022-01-21T01:32:00,plm,12.06
2022-01-21T01:33:00,plm,12.04
2022-01-21T01:34:00,plm,12.03
2022-01-21T01:35:00,plm,12.17
2022-01-21T01:36:00,plm,13.08
2022-01-21T01:37:00,plm,13.12
2022-01-21T01:38:00,plm,13.13
2022-01-21T01:39:00,plm,13.26
2022-01-21T01:40:00,plm,21.97
2022-01-21T01:41:00,plm,21.60
2022-01-21T01:42:00,plm,21.41
2022-01-21T01:43:00,plm,12.30
2022-01-21T01:44:00,plm,12.32
2022-01-21T01:45:00,plm,13.23
2022-01-21T01:46:00,plm,13.14
2022-01-21T01:47:00,plm,12.92
2022-01-21T01:48:00,plm,13.03
2022-01-21T01:49:00,plm,12.02
2022-01-21T01:50:00,plm,12.01
2022-01-21T01:51:00,plm,11.96
2022-01-21T01:52:00,plm,11.96
2022-01-21T01:53:00,plm,12.10
2022-01-21T01:54:00,plm,12.08
2022-01-21T01:55:00,plm,12.93
2022-01-21T01:56:00,plm,12.97
2022-01-21T01:57:00,plm,13.09
2022-01-21T01:58:00,plm,12.10
2022-01-21T01:59:00,plm,12.09
2022-01-21T02:00:00,plm,11.97
2022-01-21T02:01:00,plm,11.94
2022-01-21T02:02:00,plm,11.93
2022-01-21T02:03:00,plm,11.94
2022-01-21T02:04:00,plm,12.78
2022-01-21T02:05:00,plm,12.76
2022-01-21T02:06:00,plm,12.84
2022-01-21T02:07:00,plm,11.98
2022-01-21T02:08:00,plm,11.93
2022-01-21T02:09:00,plm,11.80
2022-01-21T02:10:00,plm,11.86
2022-01-21T02:11:00,plm,11.88
2022-01-21T02:12:00,plm,11.83
2022-01-21T02:13:00,plm,12.72
2022-01-21T02:14:00,plm,12.79
2022-01-21T02:15:00,plm,12.76
2022-01-21T02:16:00,plm,11.16
2022-01-21T02:17:00,plm,11.05
2022-01-21T02:18:00,plm,11.03
2022-01-21T02:19:00,plm,11.29
2022-01-21T02:20:00,plm,11.29
2022-01-21T02:21:00,plm,12.30
2022-01-21T02:22:00,plm,12.39
2022-01-21T02:23:00,plm,12.39
2022-01-21T02:24:00,plm,12.40
2022-01-21T02:25:00,plm,11.41
2022-01-21T02:26:00,plm,11.44
2022-01-21T02:27:00,plm,11.42
2022-01-21T02:28:00,plm,10.83
2022-01-21T02:29:00,plm,10.72
2022-01-21T02:30:00,plm,11.68
2022-01-21T02:31:00,plm,11.74
2022-01-21T02:32:00,plm,11.74
2022-01-21T02:33:00,plm,10.90
2022-01-21T02:34:00,plm,10.88
2022-01-21T02:35:00,plm,10.96
2022-01-21T02:36:00,plm,10.79
2022-01-21T02:37:00,plm,10.95
2022-01-21T02:38:00,plm,10.83
2022-01-21T02:39:00,plm,11.89
2022-01-21T02:40:00,plm,11.99
2022-01-21T02:41:00,plm,12.34
2022-01-21T02:42:00,plm,12.29
2022-01-21T02:43:00,plm,12.23
2022-01-21T02:44:00,plm,11.40
2022-01-21T02:45:00,plm,11.47
2022-01-21T02:46:00,plm,11.47
2022-01-21T02:47:00,plm,11.38
2022-01-21T02:48:00,plm,11.30
2022-01-21T02:49:00,plm,12.18
2022-01-21T02:50:00,plm,12.29
2022-01-21T02:51:00,plm,12.23
2022-01-21T02:52:00,plm,12.02
2022-01-21T02:53:00,plm,11.10
2022-01-21T02:54:00,plm,11.20
2022-01-21T02:55:00,plm,11.14
2022-01-21T02:56:00,plm,10.76
2022-01-21T02:57:00,plm,10.69
2022-01-21T02:58:00,plm,10.63
2022-01-21T02:59:00,plm,10.68
2022-01-21T03:00:00,plm,11.58
2022-01-21T03:01:00,plm,11.63
2022-01-21T03:02:00,plm,11.70
2022-01-21T03:03:00,plm,10.76
2022-01-21T03:04:00,plm,10.82
2022-01-21T03:05:00,plm,10.74
2022-01-21T03:06:00,plm,10.66
2022-01-21T03:07:00,plm,10.72
2022-01-21T03:08:00,plm,11.65
2022-01-21T03:09:00,plm,11.70
2022-01-21T03:10:00,plm,11.63
2022-01-21T03:11:00,plm,11.69
2022-01-21T03:12:00,plm,10.72
2022-01-21T03:13:00,plm,10.54
2022-01-21T03:14:00,plm,10.65
2022-01-21T03:15:00,plm,10.59
2022-01-21T03:16:00,plm,10.50
2022-01-21T03:17:00,plm,10.58
2022-01-21T03:18:00,plm,11.53
2022-01-21T03:19:00,plm,11.44
2022-01-21T03:20:00,plm,11.45
2022-01-21T03:21:00,plm,10.51
2022-01-21T03:22:00,plm,10.48
2022-01-21T03:23:00,plm,10.60
2022-01-21T03:24:00,plm,10.58
2022-01-21T03:25:00,plm,10.61
2022-01-21T03:26:00,plm,11.47
2022-01-21T03:27:00,plm,11.57
2022-01-21T03:28:00,plm,11.53
2022-01-21T03:29:00,plm,10.60
2022-01-21T03:30:00,plm,10.53
2022-01-21T03:31:00,plm,10.55
2022-01-21T03:32:00,plm,10.63
2022-01-21T03:33:00,plm,10.70
2022-01-21T03:34:00,plm,10.56
2022-01-21T03:35:00,plm,11.56
2022-01-21T03:36:00,plm,11.49
2022-01-21T03:37:00,plm,11.52
2022-01-21T03:38:00,plm,10.59
2022-01-21T03:39:00,plm,20.17
2022-01-21T03:40:00,plm,19.98
2022-01-21T03:41:00,plm,19.90
2022-01-21T03:42:00,plm,19.75
2022-01-21T03:43:00,plm,11.59
2022-01-21T03:44:00,plm,11.66
2022-01-21T03:45:00,plm,11.65
2022-01-21T03:46:00,plm,11.64
2022-01-21T03:47:00,plm,10.63
2022-01-21T03:48:00,plm,10.59
2022-01-21T03:49:00,plm,10.56
2022-01-21T03:50:00,plm,10.59
2022-01-21T03:51:00,plm,10.60
2022-01-21T03:52:00,plm,11.47
2022-01-21T03:53:00,plm,11.45
2022-01-21T03:54:00,plm,11.45
2022-01-21T03:55:00,plm,11.49
2022-01-21T03:56:00,plm,10.47
2022-01-21T03:57:00,plm,10.45
2022-01-21T03:58:00,plm,10.42
2022-01-21T03:59:00,plm,10.40
2022-01-21T04:00:00,plm,10.45
2022-01-21T04:01:00,plm,11.47
2022-01-21T04:02:00,plm,11.44
2022-01-21T04:03:00,plm,16.35
2022-01-21T04:04:00,plm,10.54
2022-01-21T04:05:00,plm,10.52
2022-01-21T04:06:00,plm,10.56
2022-01-21T04:07:00,plm,10.56
2022-01-21T04:08:00,plm,10.48
2022-01-21T04:09:00,plm,11.46
2022-01-21T04:10:00,plm,11.51
2022-01-21T04:11:00,plm,11.51
2022-01-21T04:12:00,plm,11.42
2022-01-21T04:13:00,plm,10.40
2022-01-21T04:14:00,plm,10.36
2022-01-21T04:15:00,plm,10.31
2022-01-21T04:16:00,plm,10.33
2022-01-21T04:17:00,plm,10.37
2022-01-21T04:18:00,plm,11.39
2022-01-21T04:19:00,plm,20.79
2022-01-21T04:20:00,plm,20.66
2022-01-21T04:21:00,plm,11.57
2022-01-21T04:22:00,plm,10.65
2022-01-21T04:23:00,plm,10.70
2022-01-21T04:24:00,plm,10.67
2022-01-21T04:25:00,plm,10.62
2022-01-21T04:26:00,plm,10.62
2022-01-21T04:27:00,plm,11.57
2022-01-21T04:28:00,plm,11.68
2022-01-21T04:29:00,plm,11.66
2022-01-21T04:30:00,plm,11.68
2022-01-21T04:31:00,plm,10.63
2022-01-21T04:32:00,plm,10.59
2022-01-21T04:33:00,plm,10.64
2022-01-21T04:34:00,plm,10.58
2022-01-21T04:35:00,plm,10.58
2022-01-21T04:36:00,plm,11.42
2022-01-21T04:37:00,plm,11.44
2022-01-21T04:38:00,plm,11.57
2022-01-21T04:39:00,plm,10.64
2022-01-21T04:40:00,plm,10.61
2022-01-21T04:41:00,plm,10.54
2022-01-21T04:42:00,plm,10.61
2022-01-21T04:43:00,plm,10.55
2022-01-21T04:44:00,plm,11.53
2022-01-21T04:45:00,plm,11.49
2022-01-21T04:46:00,plm,11.40
2022-01-21T04:47:00,plm,11.54
2022-01-21T04:48:00,plm,10.63
2022-01-21T04:49:00,plm,10.97
2022-01-21T04:50:00,plm,10.89
2022-01-21T04:51:00,plm,11.41
2022-01-21T04:52:00,plm,11.84
2022-01-21T04:53:00,plm,11.84
2022-01-21T04:54:00,plm,11.82
2022-01-21T04:55:00,plm,12.49
2022-01-21T04:56:00,plm,10.93
2022-01-21T04:57:00,plm,10.98
2022-01-21T04:58:00,plm,10.99
2022-01-21T04:59:00,plm,10.91
2022-01-21T05:00:00,plm,10.83
2022-01-21T05:01:00,plm,10.88
2022-01-21T05:02:00,plm,11.70
2022-01-21T05:03:00,plm,11.79
2022-01-21T05:04:00,plm,11.75
2022-01-21T05:05:00,plm,11.80
2022-01-21T05:06:00,plm,10.61
2022-01-21T05:07:00,plm,10.66
2022-01-21T05:08:00,plm,10.65
2022-01-21T05:09:00,plm,10.56
2022-01-21T05:10:00,plm,10.65
2022-01-21T05:11:00,plm,10.58
2022-01-21T05:12:00,plm,10.58
2022-01-21T05:13:00,plm,11.45
2022-01-21T05:14:00,plm,11.56
2022-01-21T05:15:00,plm,11.54
2022-01-21T05:16:00,plm,10.69
2022-01-21T05:17:00,plm,10.68
2022-01-21T05:18:00,plm,10.59
2022-01-21T05:19:00,plm,10.55
2022-01-21T05:20:00,plm,10.57
2022-01-21T05:21:00,plm,12.12
2022-01-21T05:22:00,plm,12.18
2022-01-21T05:23:00,plm,12.18
2022-01-21T05:24:00,plm,12.16
2022-01-21T05:25:00,plm,11.37
2022-01-21T05:26:00,plm,11.34
2022-01-21T05:27:00,plm,11.34
2022-01-21T05:28:00,plm,11.26
2022-01-21T05:29:00,plm,11.30
2022-01-21T05:30:00,plm,12.19
2022-01-21T05:31:00,plm,12.24
2022-01-21T05:32:00,plm,12.29
2022-01-21T05:33:00,plm,12.39
2022-01-21T05:34:00,plm,11.47
2022-01-21T05:35:00,plm,11.47
2022-01-21T05:36:00,plm,11.44
2022-01-21T05:37:00,plm,11.32
2022-01-21T05:38:00,plm,11.20
2022-01-21T05:39:00,plm,12.01
2022-01-21T05:40:00,plm,12.09
2022-01-21T05:41:00,plm,12.07
2022-01-21T05:42:00,plm,11.14
2022-01-21T05:43:00,plm,11.15
2022-01-21T05:44:00,plm,11.04
2022-01-21T05:45:00,plm,11.20
2022-01-21T05:46:00,plm,11.13
2022-01-21T05:47:00,plm,12.49
2022-01-21T05:48:00,plm,12.04
2022-01-21T05:49:00,plm,12.02
2022-01-21T05:50:00,plm,11.16
2022-01-21T05:51:00,plm,11.12
2022-01-21T05:52:00,plm,11.25
2022-01-21T05:53:00,plm,11.36
2022-01-21T05:54:00,plm,11.25
2022-01-21T05:55:00,plm,12.19
2022-01-21T05:56:00,plm,12.16
2022-01-21T05:57:00,plm,12.24
2022-01-21T05:58:00,plm,12.15
2022-01-21T05:59:00,plm,11.14
2022-01-21T06:00:00,plm,11.01
2022-01-21T06:01:00,plm,11.13
2022-01-21T06:02:00,plm,10.99
2022-01-21T06:03:00,plm,10.97
2022-01-21T06:04:00,plm,11.79
2022-01-21T06:05:00,plm,11.94
2022-01-21T06:06:00,plm,11.93
2022-01-21T06:07:00,plm,11.91
2022-01-21T06:08:00,plm,10.91
2022-01-21T06:09:00,plm,10.98
2022-01-21T06:10:00,plm,11.01
2022-01-21T06:11:00,plm,10.96
2022-01-21T06:12:00,plm,10.98
2022-01-21T06:13:00,plm,11.86
2022-01-21T06:14:00,plm,11.91
2022-01-21T06:15:00,plm,12.07
2022-01-21T06:16:00,plm,21.17
2022-01-21T06:17:00,plm,20.31
2022-01-21T06:18:00,plm,20.12
2022-01-21T06:19:00,plm,20.03
2022-01-21T06:20:00,plm,11.17
2022-01-21T06:21:00,plm,12.10
2022-01-21T06:22:00,plm,12.25
2022-01-21T06:23:00,plm,12.16
2022-01-21T06:24:00,plm,11.37
2022-01-21T06:25:00,plm,11.32
2022-01-21T06:26:00,plm,11.30
2022-01-21T06:27:00,plm,11.22
2022-01-21T06:28:00,plm,11.29
2022-01-21T06:29:00,plm,11.29
2022-01-21T06:30:00,plm,12.30
2022-01-21T06:31:00,plm,12.34
2022-01-21T06:32:00,plm,12.36
2022-01-21T06:33:00,plm,11.33
2022-01-21T06:34:00,plm,11.38
2022-01-21T06:35:00,plm,11.73
2022-01-21T06:36:00,plm,11.70
2022-01-21T06:37:00,plm,12.70
2022-01-21T06:38:00,plm,12.51
2022-01-21T06:39:00,plm,12.50
2022-01-21T06:40:00,plm,12.53
2022-01-21T06:41:00,plm,12.16
2022-01-21T06:42:00,plm,11.70
2022-01-21T06:43:00,plm,11.68
2022-01-21T06:44:00,plm,11.75
2022-01-21T06:45:00,plm,11.84
2022-01-21T06:46:00,plm,12.26
2022-01-21T06:47:00,plm,12.27
2022-01-21T06:48:00,plm,12.30
2022-01-21T06:49:00,plm,11.37
2022-01-21T06:50:00,plm,11.35
2022-01-21T06:51:00,plm,11.25
2022-01-21T06:52:00,plm,11.25
2022-01-21T06:53:00,plm,11.42
2022-01-21T06:54:00,plm,11.44
2022-01-21T06:55:00,plm,12.19
2022-01-21T06:56:00,plm,12.16
2022-01-21T06:57:00,plm,12.12
2022-01-21T06:58:00,plm,11.25
2022-01-21T06:59:00,plm,11.22
2022-01-21T07:00:00,plm,11.21
2022-01-21T07:01:00,plm,10.56
2022-01-21T07:02:00,plm,10.47
2022-01-21T07:03:00,plm,11.43
2022-01-21T07:04:00,plm,11.50
2022-01-21T07:05:00,plm,11.46
2022-01-21T07:06:00,plm,10.39
2022-01-21T07:07:00,plm,10.36
2022-01-21T07:08:00,plm,10.33
2022-01-21T07:09:00,plm,10.35
2022-01-21T07:10:00,plm,10.34
2022-01-21T07:11:00,plm,11.21
2022-01-21T07:12:00,plm,11.26
2022-01-21T07:13:00,plm,10.67
2022-01-21T07:14:00,plm,9.84
2022-01-21T07:15:00,plm,9.79
2022-01-21T07:16:00,plm,9.78
2022-01-21T07:17:00,plm,9.84
2022-01-21T07:18:00,plm,9.77
2022-01-21T07:19:00,plm,10.65
2022-01-21T07:20:00,plm,10.71
2022-01-21T07:21:00,plm,10.72
2022-01-21T07:22:00,plm,10.87
2022-01-21T07:23:00,plm,9.79
2022-01-21T07:24:00,plm,9.72
2022-01-21T07:25:00,plm,9.76
2022-01-21T07:26:00,plm,9.65
2022-01-21T07:27:00,plm,10.47
2022-01-21T07:28:00,plm,10.53
2022-01-21T07:29:00,plm,10.50
2022-01-21T07:30:00,plm,10.59
2022-01-21T07:31:00,plm,9.63
2022-01-21T07:32:00,plm,9.63
2022-01-21T07:33:00,plm,9.78
2022-01-21T07:34:00,plm,9.73
2022-01-21T07:35:00,plm,9.62
2022-01-21T07:36:00,plm,10.44
2022-01-21T07:37:00,plm,10.51
2022-01-21T07:38:00,plm,10.50
2022-01-21T07:39:00,plm,10.60
2022-01-21T07:40:00,plm,9.72
2022-01-21T07:41:00,plm,9.80
2022-01-21T07:42:00,plm,9.81
2022-01-21T07:43:00,plm,9.85
2022-01-21T07:44:00,plm,9.88
2022-01-21T07:45:00,plm,10.61
2022-01-21T07:46:00,plm,10.69
2022-01-21T07:47:00,plm,10.72
2022-01-21T07:48:00,plm,9.86
2022-01-21T07:49:00,plm,10.22
2022-01-21T07:50:00,plm,10.22
2022-01-21T07:51:00,plm,10.19
2022-01-21T07:52:00,plm,11.13
2022-01-21T07:53:00,plm,11.19
2022-01-21T07:54:00,plm,11.11
2022-01-21T07:55:00,plm,11.14
2022-01-21T07:56:00,plm,10.82
2022-01-21T07:57:00,plm,10.81
2022-01-21T07:58:00,plm,10.88
2022-01-21T07:59:00,plm,10.91
2022-01-21T08:00:00,plm,10.55
2022-01-21T08:01:00,plm,10.67
2022-01-21T08:02:00,plm,11.62
2022-01-21T08:03:00,plm,11.66
2022-01-21T08:04:00,plm,11.51
2022-01-21T08:05:00,plm,11.49
2022-01-21T08:06:00,plm,10.47
2022-01-21T08:07:00,plm,10.50
2022-01-21T08:08:00,plm,10.21
2022-01-21T08:09:00,plm,10.55
2022-01-21T08:10:00,plm,10.26
2022-01-21T08:11:00,plm,11.32
2022-01-21T08:12:00,plm,20.54
2022-01-21T08:13:00,plm,20.38
2022-01-21T08:14:00,plm,10.27
2022-01-21T08:15:00,plm,10.27
2022-01-21T08:16:00,plm,10.36
2022-01-21T08:17:00,plm,10.36
2022-01-21T08:18:00,plm,10.43
2022-01-21T08:19:00,plm,11.65
2022-01-21T08:20:00,plm,12.29
2022-01-21T08:21:00,plm,12.40
2022-01-21T08:22:00,plm,12.27
2022-01-21T08:23:00,plm,11.42
2022-01-21T08:24:00,plm,11.31
2022-01-21T08:25:00,plm,11.28
2022-01-21T08:26:00,plm,11.26
2022-01-21T08:27:00,plm,11.20
2022-01-21T08:28:00,plm,12.05
2022-01-21T08:29:00,plm,12.11
2022-01-21T08:30:00,plm,12.08
2022-01-21T08:31:00,plm,12.21
2022-01-21T08:32:00,plm,11.24
2022-01-21T08:33:00,plm,11.21
2022-01-21T08:34:00,plm,11.28
2022-01-21T08:35:00,plm,11.29
2022-01-21T08:36:00,plm,11.32
2022-01-21T08:37:00,plm,12.21
2022-01-21T08:38:00,plm,12.30
2022-01-21T08:39:00,plm,12.30
2022-01-21T08:40:00,plm,11.30
2022-01-21T08:41:00,plm,11.35
2022-01-21T08:42:00,plm,11.67
2022-01-21T08:43:00,plm,11.63
2022-01-21T08:44:00,plm,11.68
2022-01-21T08:45:00,plm,11.61
2022-01-21T08:46:00,plm,12.48
2022-01-21T08:47:00,plm,12.54
2022-01-21T08:48:00,plm,12.42
2022-01-21T08:49:00,plm,11.48
2022-01-21T08:50:00,plm,11.54
2022-01-21T08:51:00,plm,11.64
2022-01-21T08:52:00,plm,11.54
2022-01-21T08:53:00,plm,11.64
2022-01-21T08:54:00,plm,11.58
2022-01-21T08:55:00,plm,12.45
2022-01-21T08:56:00,plm,12.48
2022-01-21T08:57:00,plm,12.50
2022-01-21T08:58:00,plm,11.57
2022-01-21T08:59:00,plm,11.55
2022-01-21T09:00:00,plm,11.76
2022-01-21T09:01:00,plm,12.70
2022-01-21T09:02:00,plm,12.67
2022-01-21T09:03:00,plm,13.62
2022-01-21T09:04:00,plm,13.68
2022-01-21T09:05:00,plm,13.72
2022-01-21T09:06:00,plm,12.71
2022-01-21T09:07:00,plm,12.67
2022-01-21T09:08:00,plm,12.72
2022-01-21T09:09:00,plm,12.69
2022-01-21T09:10:00,plm,11.89
2022-01-21T09:11:00,plm,11.84
2022-01-21T09:12:00,plm,12.65
2022-01-21T09:13:00,plm,12.93
2022-01-21T09:14:00,plm,12.83
2022-01-21T09:15:00,plm,12.80
2022-01-21T09:16:00,plm,13.72
2022-01-21T09:17:00,plm,11.80
2022-01-21T09:18:00,plm,11.82
2022-01-21T09:19:00,plm,11.90
2022-01-21T09:20:00,plm,12.01
2022-01-21T09:21:00,plm,11.99
2022-01-21T09:22:00,plm,12.87
2022-01-21T09:23:00,plm,12.80
2022-01-21T09:24:00,plm,12.40
2022-01-21T09:25:00,plm,24.40
2022-01-21T09:26:00,plm,12.52
2022-01-21T09:27:00,plm,11.56
2022-01-21T09:28:00,plm,11.70
2022-01-21T09:29:00,plm,11.72
2022-01-21T09:30:00,plm,21.14
2022-01-21T09:31:00,plm,21.00
2022-01-21T09:32:00,plm,20.89
2022-01-21T09:33:00,plm,12.64
2022-01-21T09:34:00,plm,24.00
2022-01-21T09:35:00,plm,12.54
2022-01-21T09:36:00,plm,12.49
2022-01-21T09:37:00,plm,11.51
2022-01-21T09:38:00,plm,11.42
2022-01-21T09:39:00,plm,11.46
2022-01-21T09:40:00,plm,11.65
2022-01-21T09:41:00,plm,11.63
2022-01-21T09:42:00,plm,11.72
2022-01-21T09:43:00,plm,12.45
2022-01-21T09:44:00,plm,12.65
2022-01-21T09:45:00,plm,12.82
2022-01-21T09:46:00,plm,12.89
2022-01-21T09:47:00,plm,11.90
2022-01-21T09:48:00,plm,11.95
2022-01-21T09:49:00,plm,11.96
2022-01-21T09:50:00,plm,12.13
2022-01-21T09:51:00,plm,13.45
2022-01-21T09:52:00,plm,12.79
2022-01-21T09:53:00,plm,12.76
2022-01-21T09:54:00,plm,12.70
2022-01-21T09:55:00,plm,12.75
2022-01-21T09:56:00,plm,12.73
2022-01-21T09:57:00,plm,11.83
2022-01-21T09:58:00,plm,11.97
2022-01-21T09:59:00,plm,11.84
2022-01-21T10:00:00,plm,12.02
2022-01-21T10:01:00,plm,12.94
2022-01-21T10:02:00,plm,12.87
2022-01-21T10:03:00,plm,12.92
2022-01-21T10:04:00,plm,12.96
2022-01-21T10:05:00,plm,12.91
2022-01-21T10:06:00,plm,12.00
2022-01-21T10:07:00,plm,11.92
2022-01-21T10:08:00,plm,11.93
2022-01-21T10:09:00,plm,11.91
2022-01-21T10:10:00,plm,11.96
2022-01-21T10:11:00,plm,11.90
2022-01-21T10:12:00,plm,12.79
2022-01-21T10:13:00,plm,12.89
2022-01-21T10:14:00,plm,12.84
2022-01-21T10:15:00,plm,12.17
2022-01-21T10:16:00,plm,11.90
2022-01-21T10:17:00,plm,11.85
2022-01-21T10:18:00,plm,11.85
2022-01-21T10:19:00,plm,11.84
2022-01-21T10:20:00,plm,12.00
2022-01-21T10:21:00,plm,12.94
2022-01-21T10:22:00,plm,13.39
2022-01-21T10:23:00,plm,13.21
2022-01-21T10:24:00,plm,13.20
2022-01-21T10:25:00,plm,13.24
2022-01-21T10:26:00,plm,12.67
2022-01-21T10:27:00,plm,12.64
2022-01-21T10:28:00,plm,12.60
2022-01-21T10:29:00,plm,12.74
2022-01-21T10:30:00,plm,12.68
2022-01-21T10:31:00,plm,12.74
2022-01-21T10:32:00,plm,12.78
2022-01-21T10:33:00,plm,13.51
2022-01-21T10:34:00,plm,13.58
2022-01-21T10:35:00,plm,12.82
2022-01-21T10:36:00,plm,11.96
2022-01-21T10:37:00,plm,11.86
2022-01-21T10:38:00,plm,11.86
2022-01-21T10:39:00,plm,12.00
2022-01-21T10:40:00,plm,12.31
2022-01-21T10:41:00,plm,12.25
2022-01-21T10:42:00,plm,13.09
2022-01-21T10:43:00,plm,13.21
2022-01-21T10:44:00,plm,13.29
2022-01-21T10:45:00,plm,13.15
2022-01-21T10:46:00,plm,12.44
2022-01-21T10:47:00,plm,12.33
2022-01-21T10:48:00,plm,12.53
2022-01-21T10:49:00,plm,12.52
2022-01-21T10:50:00,plm,12.48
2022-01-21T10:51:00,plm,12.58
2022-01-21T10:52:00,plm,13.42
2022-01-21T10:53:00,plm,13.17
2022-01-21T10:54:00,plm,13.30
2022-01-21T10:55:00,plm,13.20
2022-01-21T10:56:00,plm,12.11
2022-01-21T10:57:00,plm,12.25
2022-01-21T10:58:00,plm,12.16
2022-01-21T10:59:00,plm,12.31
2022-01-21T11:00:00,plm,12.11
2022-01-21T11:01:00,plm,13.29
2022-01-21T11:02:00,plm,13.41
2022-01-21T11:03:00,plm,14.64
2022-01-21T11:04:00,plm,14.41
2022-01-21T11:05:00,plm,14.43
2022-01-21T11:06:00,plm,13.71
2022-01-21T11:07:00,plm,13.90
2022-01-21T11:08:00,plm,14.14
2022-01-21T11:09:00,plm,14.51
2022-01-21T11:10:00,plm,23.36
2022-01-21T11:11:00,plm,23.18
2022-01-21T11:12:00,plm,23.63
2022-01-21T11:13:00,plm,14.74
2022-01-21T11:14:00,plm,14.93
2022-01-21T11:15:00,plm,14.86
2022-01-21T11:16:00,plm,14.89
2022-01-21T11:17:00,plm,13.76
2022-01-21T11:18:00,plm,13.96
2022-01-21T11:19:00,plm,13.99
2022-01-21T11:20:00,plm,14.00
2022-01-21T11:21:00,plm,14.00
2022-01-21T11:22:00,plm,15.35
2022-01-21T11:23:00,plm,26.49
2022-01-21T11:24:00,plm,26.54
2022-01-21T11:25:00,plm,14.84
2022-01-21T11:26:00,plm,14.85
2022-01-21T11:27:00,plm,13.87
2022-01-21T11:28:00,plm,13.92
2022-01-21T11:29:00,plm,14.01
2022-01-21T11:30:00,plm,13.90
2022-01-21T11:31:00,plm,13.74
2022-01-21T11:32:00,plm,14.83
2022-01-21T11:33:00,plm,14.82
2022-01-21T11:34:00,plm,14.83
2022-01-21T11:35:00,plm,14.81
2022-01-21T11:36:00,plm,19.26
2022-01-21T11:37:00,plm,18.32
2022-01-21T11:38:00,plm,18.43
2022-01-21T11:39:00,plm,18.60
2022-01-21T11:40:00,plm,18.39
2022-01-21T11:41:00,plm,18.41
2022-01-21T11:42:00,plm,18.43
2022-01-21T11:43:00,plm,19.36
2022-01-21T11:44:00,plm,19.39
2022-01-21T11:45:00,plm,19.41
2022-01-21T11:46:00,plm,19.37
2022-01-21T11:47:00,plm,19.41
2022-01-21T11:48:00,plm,18.45
2022-01-21T11:49:00,plm,18.44
2022-01-21T11:50:00,plm,18.46
2022-01-21T11:51:00,plm,18.45
2022-01-21T11:52:00,plm,19.11
2022-01-21T11:53:00,plm,19.62
2022-01-21T11:54:00,plm,19.42
2022-01-21T11:55:00,plm,19.53
2022-01-21T11:56:00,plm,19.42
2022-01-21T11:57:00,plm,28.65
2022-01-21T11:58:00,plm,27.49
2022-01-21T11:59:00,plm,18.40
2022-01-21T12:00:00,plm,18.38
2022-01-21T12:01:00,plm,18.25
2022-01-21T12:02:00,plm,18.20
2022-01-21T12:03:00,plm,18.24
2022-01-21T12:04:00,plm,19.32
2022-01-21T12:05:00,plm,19.17
2022-01-21T12:06:00,plm,19.10
2022-01-21T12:07:00,plm,18.95
2022-01-21T12:08:00,plm,18.11
2022-01-21T12:09:00,plm,18.00
2022-01-21T12:10:00,plm,18.00
2022-01-21T12:11:00,plm,18.10
2022-01-21T12:12:00,plm,18.21
2022-01-21T12:13:00,plm,18.22
2022-01-21T12:14:00,plm,19.16
2022-01-21T12:15:00,plm,19.30
2022-01-21T12:16:00,plm,19.38
2022-01-21T12:17:00,plm,14.86
2022-01-21T12:18:00,plm,13.84
2022-01-21T12:19:00,plm,13.84
2022-01-21T12:20:00,plm,17.86
2022-01-21T12:21:00,plm,17.89
2022-01-21T12:22:00,plm,17.86
2022-01-21T12:23:00,plm,17.86
2022-01-21T12:24:00,plm,14.64
2022-01-21T12:25:00,plm,14.82
2022-01-21T12:26:00,plm,19.08
2022-01-21T12:27:00,plm,18.92
2022-01-21T12:28:00,plm,19.31
2022-01-21T12:29:00,plm,19.95
2022-01-21T12:30:00,plm,15.79
2022-01-21T12:31:00,plm,15.74
2022-01-21T12:32:00,plm,15.65
2022-01-21T12:33:00,plm,15.67
2022-01-21T12:34:00,plm,14.19
2022-01-21T12:35:00,plm,15.03
2022-01-21T12:36:00,plm,14.83
2022-01-21T12:37:00,plm,14.87
2022-01-21T12:38:00,plm,14.97
2022-01-21T12:39:00,plm,14.87
2022-01-21T12:40:00,plm,14.04
2022-01-21T12:41:00,plm,23.29
2022-01-21T12:42:00,plm,23.10
2022-01-21T12:43:00,plm,13.82
2022-01-21T12:44:00,plm,13.98
2022-01-21T12:45:00,plm,14.94
2022-01-21T12:46:00,plm,14.17
2022-01-21T12:47:00,plm,14.41
2022-01-21T12:48:00,plm,14.34
2022-01-21T12:49:00,plm,14.88
2022-01-21T12:50:00,plm,13.38
2022-01-21T12:51:00,plm,13.32
2022-01-21T12:52:00,plm,13.27
2022-01-21T12:53:00,plm,13.27
2022-01-21T12:54:00,plm,13.45
2022-01-21T12:55:00,plm,14.38
2022-01-21T12:56:00,plm,14.60
2022-01-21T12:57:00,plm,14.66
2022-01-21T12:58:00,plm,14.59
2022-01-21T12:59:00,plm,15.05
2022-01-21T13:00:00,plm,13.83
2022-01-21T13:01:00,plm,13.92
2022-01-21T13:02:00,plm,13.84
2022-01-21T13:03:00,plm,13.78
2022-01-21T13:04:00,plm,13.51
2022-01-21T13:05:00,plm,14.47
2022-01-21T13:06:00,plm,14.43
2022-01-21T13:07:00,plm,14.30
2022-01-21T13:08:00,plm,14.39
2022-01-21T13:09:00,plm,14.45
2022-01-21T13:10:00,plm,13.36
2022-01-21T13:11:00,plm,13.48
2022-01-21T13:12:00,plm,13.27
2022-01-21T13:13:00,plm,13.38
2022-01-21T13:14:00,plm,13.39
2022-01-21T13:15:00,plm,13.17
2022-01-21T13:16:00,plm,14.13
2022-01-21T13:17:00,plm,14.18
2022-01-21T13:18:00,plm,14.17